Location: Bremen
(53.0793°N, 8.8017°E)
Time: 21:57:30
(UTC+02:00)

Vanguard 2 Rocket - Pass Details

Date: 21 April 2024
Orbit: 556 x 3304 km, 32.9° (Epoch: 20 May)

Event Time Altitude Azimuth Distance (km) Brightness Sun altitude
Rises 23:43:12 0° 235° (SW) 6,505 11.2 -21.5°
Reaches altitude 10° 23:47:39 10° 228° (SW) 5,769 10.8 -21.8°
Maximum altitude 00:03:51 38° 169° (S) 4,363 9.8 -22.8°
Drops below altitude 10° 00:20:18 10° 111° (ESE) 5,865 10.7 -23.6°
Sets 00:24:51 0° 104° (ESE) 6,621 11.0 -23.8°
